Vorticity
8 5 4 2 1 2 3 3 3 2 2 3 4 4 0 2 5 5 8 7 9 8 3 5 6 5 5 4 4 6 6 3 0 2 4 4 3 4 3 2 3 3 4 4 5 5 5 5 4 4 4 4 4 4 4 3 4 4 3 3 3 3 3 3 3 2 2 3 3 3 3 3 4 5 7 8 7 7 7 7 7 7 7 7 7 7 7 7
8 7 6 5 2 1 3 2 2 4 4 4 4 2 1 1 3 9 10 6 9 7 3 5 5 5 5 4 3 5 8 4 0 2 3 3 3 3 2 2 4 4 5 5 6 6 6 6 5 5 4 4 4 4 4 4 3 4 3 4 4 4 4 3 4 3 4 4 4 4 4 5 6 7 8 7 7 7 7 6 7 6 6 7 7 7 7 7
7 7 6 7 5 3 2 0 1 3 4 7 8 2 1 2 5 12 8 5 9 5 3 5 5 6 4 4 3 4 8 3 1 2 1 2 2 2 3 4 4 5 6 5 5 5 5 5 5 4 4 4 4 3 5 4 4 5 4 4 4 4 5 4 5 4 5 5 5 6 6 6 7 7 7 6 7 6 6 6 6 6 6 7 7 7 7 7
8 7 7 7 8 7 5 3 2 1 2 4 8 7 0 2 10 12 5 6 9 4 4 6 6 6 3 5 4 4 7 4 2 1 0 2 2 3 4 5 5 5 5 4 4 5 4 4 4 4 4 4 4 4 4 5 5 5 4 4 5 5 6 6 6 7 6 6 7 6 6 6 6 6 6 5 6 5 6 6 5 6 6 6 6 7 7 7
10 9 7 7 10 10 8 7 6 5 4 0 2 3 -1 6 14 9 5 8 7 4 5 6 6 5 4 5 3 5 7 4 3 1 1 3 2 3 5 5 5 3 4 4 4 5 5 5 5 4 5 5 5 5 6 7 5 5 5 5 6 7 6 6 7 8 7 7 7 7 6 6 5 5 5 4 4 5 5 5 5 5 5 5 5 5 6 7
20 18 10 9 10 10 11 8 8 8 8 14 9 1 9 22 17 6 7 9 5 4 5 6 6 5 5 4 2 7 7 4 4 3 4 3 1 4 5 5 4 2 3 4 4 5 6 6 6 5 7 7 6 7 8 7 6 7 7 7 8 7 6 7 8 7 7 6 5 6 5 5 5 4 5 4 4 4 4 5 5 5 4 4 4 4 5 6
26 23 14 9 10 11 12 10 11 13 16 21 15 18 37 32 10 4 9 8 4 4 5 6 5 5 5 2 4 8 7 4 2 4 4 1 2 5 5 4 3 2 3 5 5 5 6 6 7 7 9 9 7 9 10 8 8 8 8 8 8 7 7 7 6 5 5 5 4 4 4 5 5 4 4 4 5 5 5 4 4 5 4 3 3 4 5 6
22 18 13 8 9 9 10 12 12 13 15 8 10 34 39 16 2 6 8 5 4 4 6 5 4 5 4 3 9 9 4 2 1 4 4 0 4 6 4 3 2 3 5 6 5 5 7 8 8 9 11 10 9 10 10 8 7 7 7 7 7 6 6 5 4 4 3 3 3 3 3 5 6 4 4 4 5 5 5 5 4 5 5 4 4 4 5 6
20 11 12 9 7 7 7 12 10 9 9 4 17 31 14 1 7 8 6 5 3 4 6 4 5 5 3 5 11 10 5 1 2 5 3 1 5 6 3 2 2 4 4 5 6 7 9 9 10 11 11 9 8 9 8 6 5 6 7 6 4 6 5 3 4 4 3 3 3 3 3 4 6 5 5 4 5 5 5 5 4 5 5 5 5 5 6 6
25 9 9 10 5 8 8 7 9 8 8 14 25 19 2 2 8 6 6 4 2 5 6 5 6 5 4 5 7 9 7 1 2 5 2 3 6 4 2 2 4 4 4 7 8 9 10 9 10 11 10 7 7 7 6 5 5 5 6 5 4 4 4 3 3 4 4 5 4 4 3 3 5 5 5 5 5 4 5 5 4 5 5 6 6 6 6 6
29 15 4 7 7 6 7 9 11 10 15 26 21 6 3 6 4 6 5 2 2 5 6 6 7 6 4 5 5 7 6 1 3 4 3 6 6 3 3 4 4 4 6 9 9 9 9 8 9 9 7 6 6 6 5 4 5 6 5 4 4 3 3 3 3 3 4 4 4 5 5 3 4 6 5 5 5 4 4 5 5 4 5 7 7 6 6 7
22 26 8 4 9 4 7 13 11 12 21 24 11 1 5 6 5 7 3 2 4 5 7 6 7 5 3 6 8 6 4 3 5 4 3 6 5 3 4 5 4 5 8 9 8 8 9 7 8 7 6 5 5 5 4 4 5 6 4 3 4 3 4 4 4 4 5 5 5 5 7 4 4 6 6 5 5 4 4 5 5 4 6 7 7 6 6 7
9 29 20 6 9 8 12 12 6 13 18 13 5 1 5 6 6 6 3 4 5 5 7 6 6 3 3 9 11 6 2 3 5 3 4 4 3 3 4 4 5 7 8 8 8 8 8 7 6 6 6 5 5 4 3 3 4 5 4 3 4 4 5 6 6 6 6 7 6 5 9 6 3 6 7 6 5 5 4 5 5 4 6 7 7 6 7 7
2 20 25 12 8 11 14 7 5 14 11 7 6 2 5 7 5 4 3 4 5 5 5 6 6 2 5 11 11 6 2 4 5 4 5 3 3 4 2 3 6 8 7 7 8 8 8 7 6 6 6 5 5 5 3 4 5 5 6 6 7 7 8 8 8 8 7 7 6 4 9 8 3 5 8 7 6 5 5 4 4 5 7 8 6 7 7 6
4 10 20 15 7 10 13 6 7 12 6 5 5 3 8 7 3 3 3 4 5 4 5 7 4 2 6 9 8 4 2 4 5 5 4 3 4 5 3 4 7 7 7 8 9 9 8 7 6 5 5 6 5 5 5 6 7 7 7 7 9 9 9 10 7 7 6 5 5 3 8 10 3 4 8 8 6 5 5 3 5 7 8 8 6 7 8 6
7 5 16 17 4 6 12 10 13 12 4 4 3 4 8 5 2 3 3 4 5 4 6 7 3 3 7 8 7 4 4 5 5 6 3 2 4 5 5 6 6 6 7 8 8 9 8 7 7 6 6 5 5 6 6 6 6 5 7 6 7 7 5 6 5 5 5 4 5 3 8 12 4 3 9 10 7 6 5 4 6 8 8 7 7 7 7 7
9 5 13 16 4 4 8 11 19 12 3 3 3 6 8 4 3 2 4 5 5 6 7 6 4 6 8 7 7 4 5 6 5 5 3 3 4 2 4 6 6 7 7 8 8 7 8 8 7 7 6 5 5 6 5 4 5 5 6 4 4 5 3 4 5 5 5 5 6 4 9 12 4 4 9 9 7 5 4 5 7 9 8 7 7 7 7 7
12 7 12 16 5 5 4 4 16 10 3 4 3 8 8 3 3 3 4 5 5 6 6 5 4 7 8 6 5 4 5 5 4 4 4 4 4 2 4 5 5 6 6 7 7 6 7 8 7 6 7 6 5 6 6 6 6 5 5 4 4 5 5 5 6 6 6 8 8 6 11 12 5 5 7 6 6 4 4 6 8 9 8 7 7 8 7 8
16 9 13 16 5 6 -0 -2 18 13 1 5 4 8 7 2 3 3 4 5 5 6 5 5 6 7 6 5 5 5 6 5 4 4 4 4 4 3 5 6 5 4 4 5 5 6 6 7 7 6 7 7 7 8 8 7 5 5 5 5 5 5 6 6 6 7 7 10 9 8 13 11 6 7 8 8 8 6 6 7 9 9 7 7 8 7 8 8
20 11 13 18 7 6 -2 -1 24 19 0 5 6 5 4 1 3 4 5 5 5 6 5 5 7 7 5 5 5 5 7 7 6 4 2 3 4 4 6 6 5 5 5 4 5 5 4 6 7 6 6 7 7 7 7 6 5 6 5 5 5 4 6 5 6 7 6 10 9 7 14 12 6 8 9 9 7 6 8 8 9 8 6 7 8 7 9 9
21 12 12 18 8 4 -0 2 24 19 3 7 9 4 2 1 3 5 5 5 6 6 4 5 7 6 4 5 6 6 7 8 9 6 2 3 4 5 6 5 5 5 5 4 5 5 4 6 6 5 6 5 5 5 5 5 5 5 4 4 4 4 5 4 7 7 5 9 7 6 15 11 5 10 11 7 6 7 9 8 7 7 7 8 8 8 9 10
22 14 12 19 13 3 -1 3 16 14 5 8 9 4 1 2 3 5 6 6 7 5 4 6 6 4 3 5 6 6 6 7 7 6 3 2 4 5 5 5 5 4 5 5 4 5 4 5 5 5 5 4 5 5 4 5 4 4 4 4 4 4 4 5 6 6 5 7 6 6 13 10 5 9 10 6 5 8 9 8 7 7 8 8 8 8 8 9
20 15 15 17 12 5 0 5 11 9 7 8 6 2 1 2 3 5 7 7 7 6 7 7 4 4 4 5 6 6 6 5 6 6 4 3 3 4 4 4 5 4 4 4 4 4 4 4 4 5 5 4 4 4 3 4 4 3 3 4 4 3 4 5 4 6 7 7 7 5 8 11 7 5 8 7 5 9 10 8 6 7 9 8 7 8 8 9
13 12 16 9 7 8 -0 6 13 4 6 9 4 2 1 3 4 5 6 6 7 7 7 6 3 4 5 5 6 8 8 6 6 6 3 3 3 3 4 4 4 4 3 3 3 3 3 3 3 4 4 3 5 4 3 5 4 4 4 4 4 4 4 5 5 5 6 7 9 4 4 11 8 3 7 8 7 12 10 7 8 9 10 9 8 9 8 9
10 9 13 2 9 14 -5 5 18 4 5 8 2 2 2 3 5 5 6 6 7 7 6 6 4 4 5 6 6 6 7 6 5 4 1 2 3 2 3 3 3 3 2 2 2 2 3 3 3 4 4 4 5 5 4 5 4 4 5 4 4 4 4 5 6 6 6 7 7 5 4 9 11 6 7 11 12 12 9 8 10 9 9 9 8 9 8 8
9 3 7 -1 7 15 3 15 21 3 5 8 0 3 5 5 6 6 6 6 8 8 5 6 6 4 5 6 7 6 6 6 5 4 2 2 2 2 2 3 3 3 2 2 2 2 3 2 3 4 4 5 6 5 5 5 4 4 4 4 4 4 5 5 6 6 6 7 6 8 6 6 15 10 4 13 14 9 9 9 9 9 8 9 8 8 7 7
6 -1 10 8 12 22 22 27 19 3 5 4 -2 4 7 6 7 7 5 5 8 7 4 5 6 6 5 3 5 7 7 7 6 5 5 3 3 2 2 3 3 3 3 2 2 2 3 3 4 4 4 6 6 5 5 4 4 5 4 5 5 5 5 5 6 4 6 8 8 11 7 3 16 14 4 12 12 8 11 8 8 9 8 8 7 7 7 6
1 3 14 16 20 23 21 22 15 7 5 -1 -1 5 6 6 7 7 6 5 7 6 3 3 3 6 6 1 2 6 5 5 5 5 4 3 3 2 3 3 2 3 3 2 2 3 4 4 4 4 5 6 6 5 5 4 5 6 5 6 5 4 5 4 5 4 5 9 8 12 9 2 15 17 4 9 12 10 11 8 8 9 6 6 6 6 7 6
3 14 17 14 15 13 11 14 10 7 5 -0 2 5 4 6 6 7 7 6 6 6 3 2 2 2 2 2 2 3 2 2 3 3 2 2 3 4 4 3 3 4 3 3 3 4 5 4 4 5 5 5 6 5 5 6 6 7 6 6 4 4 5 3 5 5 5 9 8 11 10 3 14 18 4 7 13 9 9 8 7 6 5 6 6 7 8 6
14 22 16 9 9 6 8 11 6 4 3 2 4 4 4 7 7 7 8 5 4 5 3 4 6 4 3 4 4 2 2 3 3 3 4 4 4 5 4 4 4 4 4 4 4 5 5 5 5 6 5 5 6 5 6 6 6 7 5 4 4 4 4 3 6 6 6 8 6 7 11 8 15 15 6 8 11 7 8 8 6 5 5 5 7 8 8 6
14 16 9 6 7 5 7 8 5 3 3 3 6 6 7 8 7 8 9 6 1 2 4 4 2 2 3 4 4 4 3 3 4 4 5 5 4 5 4 5 5 4 5 5 4 5 4 6 6 6 6 6 6 6 6 6 6 5 3 3 4 3 3 4 6 6 6 6 5 7 12 11 12 13 9 9 8 7 9 7 5 6 6 7 8 8 8 6
14 12 9 8 10 8 8 6 4 4 3 4 7 8 8 7 7 8 9 7 2 -0 3 3 -0 -0 1 1 3 5 4 4 5 5 5 5 4 5 4 5 5 4 5 4 5 5 4 6 6 6 7 6 6 6 6 5 3 2 3 5 5 5 6 7 7 6 6 6 6 9 12 10 11 13 10 8 9 10 8 5 6 7 8 8 6 7 8 6
18 14 11 11 11 8 5 3 3 3 3 5 7 8 8 7 7 8 7 6 4 1 1 1 0 -0 -1 -0 3 5 5 5 5 4 5 5 4 5 4 4 4 4 5 5 6 5 4 6 5 6 7 6 6 5 4 4 1 3 5 5 6 8 10 10 9 7 6 6 7 10 13 11 12 14 12 10 12 11 7 5 6 6 8 6 5 7 9 6
13 14 11 9 8 5 3 2 2 3 4 7 8 8 9 7 8 8 7 5 3 2 0 0 1 1 0 3 5 6 5 5 5 5 5 4 4 4 4 4 5 5 6 6 6 5 5 5 5 6 6 5 5 4 4 3 2 5 5 5 8 9 10 9 8 8 6 6 8 9 12 12 14 20 19 12 11 10 5 3 4 6 7 5 5 7 8 5
8 11 7 4 3 1 1 1 3 6 8 10 9 8 9 8 7 7 7 7 5 3 2 2 3 2 2 5 6 6 5 5 5 4 4 3 3 4 5 5 6 6 6 6 6 6 5 5 6 6 5 5 5 3 3 4 5 6 5 8 9 8 9 7 5 7 5 5 7 6 10 12 14 25 24 11 8 7 0 0 5 7 6 4 5 7 6 6
5 6 2 1 2 1 3 6 8 10 10 10 10 9 7 6 7 7 7 8 7 5 4 4 4 3 4 6 5 5 4 4 4 2 3 3 4 6 6 6 6 6 6 6 6 7 6 5 5 5 5 5 4 3 4 6 6 6 8 10 9 8 9 6 5 7 5 5 6 5 10 14 18 25 18 4 3 2 -2 2 7 7 5 4 4 6 6 5
2 4 3 3 5 7 10 10 9 9 9 10 11 9 6 5 8 8 8 8 7 6 5 4 4 4 5 6 5 5 3 2 2 2 4 5 6 8 7 6 7 7 7 6 6 7 6 5 4 4 5 4 2 4 6 7 6 7 10 10 9 9 8 6 6 8 8 4 3 8 9 14 25 23 7 -3 -2 0 2 6 7 5 5 5 5 7 6 5
1 4 5 5 7 10 11 9 8 8 10 10 8 8 7 6 7 7 8 7 6 5 4 4 4 4 5 5 4 3 1 2 3 4 6 6 7 8 7 7 8 7 7 6 6 6 5 4 3 2 4 3 4 6 7 8 7 8 11 9 9 8 6 8 8 9 11 2 2 9 6 19 38 22 -0 -2 1 4 7 5 6 7 7 6 6 7 6 4
2 5 6 7 9 10 10 8 7 8 8 8 7 7 7 6 7 7 7 6 4 4 3 3 3 4 5 4 2 1 2 4 6 6 7 7 8 8 7 8 7 6 7 6 5 5 3 3 2 1 4 4 5 7 8 9 8 9 10 8 8 7 5 8 9 11 11 1 3 6 2 29 46 12 -5 7 8 6 5 3 8 9 7 8 6 6 6 4
5 5 5 9 10 10 9 6 7 8 8 7 7 7 7 7 7 6 6 5 3 3 3 3 3 4 4 1 0 3 4 6 6 6 8 8 9 9 7 7 6 6 6 4 3 3 2 2 2 3 6 7 7 9 9 10 8 8 9 9 8 7 8 10 8 11 9 1 6 4 1 32 40 4 -2 12 7 4 3 3 8 8 6 9 5 4 5 5
7 3 3 10 11 9 8 6 7 9 7 7 7 7 7 7 7 5 4 4 3 3 3 4 4 2 1 0 2 5 5 6 7 7 8 9 8 7 6 5 5 4 4 3 2 2 2 2 3 7 9 9 9 10 10 9 8 7 8 9 8 8 12 10 7 10 6 2 9 5 1 22 25 5 5 10 5 5 5 3 6 6 7 6 4 5 5 4
3 1 5 11 10 7 7 6 7 8 7 7 7 7 7 6 6 5 4 4 3 3 4 4 2 -0 0 3 5 6 6 6 7 7 7 7 6 5 5 4 4 3 2 3 3 3 3 4 7 10 11 10 11 12 10 8 7 8 9 10 10 11 13 10 7 7 4 6 13 6 -2 6 9 6 8 7 6 7 4 3 4 5 7 5 4 6 5 4
0 4 8 10 9 7 7 6 7 7 7 6 6 6 7 6 5 4 3 3 3 4 4 1 -0 1 3 5 5 6 6 5 6 6 5 5 4 4 3 3 3 3 3 5 5 6 7 8 10 11 10 10 10 9 7 6 7 9 12 12 12 14 12 8 6 4 4 12 12 -1 -3 4 5 6 9 7 5 4 3 5 3 2 5 6 6 6 5 5
4 9 9 8 8 7 6 7 7 7 7 7 5 5 5 5 5 4 3 4 4 4 2 -0 2 4 5 6 5 5 5 4 4 4 4 4 3 3 4 4 5 6 7 8 9 10 9 10 10 9 8 9 7 5 5 6 8 11 13 13 14 14 9 6 6 4 6 11 5 -4 1 8 6 6 8 4 2 4 7 6 3 2 4 6 7 6 5 5
9 10 8 8 8 7 6 7 8 7 7 6 5 6 5 4 5 4 4 5 4 2 1 2 4 5 5 5 5 4 4 3 3 5 5 5 5 6 7 8 9 10 10 10 10 9 9 10 10 9 10 11 10 10 9 9 11 13 13 15 14 9 6 6 7 8 6 4 5 8 6 5 8 8 4 2 4 6 8 7 6 7 7 8 7 5 5 5
9 8 8 7 7 6 6 7 6 6 6 6 5 7 6 4 4 5 4 4 4 3 3 5 5 5 5 5 5 5 5 6 7 8 8 8 9 10 10 10 10 10 9 9 8 7 7 9 9 8 8 10 11 13 12 10 14 15 15 16 11 6 8 8 7 8 5 -2 6 14 3 -5 5 8 2 5 8 6 6 6 8 9 9 8 5 5 6 5
8 8 7 6 6 6 6 6 6 6 6 6 5 6 6 5 4 5 4 4 4 5 5 6 6 6 6 6 6 7 8 9 10 10 9 10 10 10 9 9 9 8 8 8 8 7 7 8 10 8 8 12 13 12 11 11 14 16 16 13 8 7 9 9 6 5 3 -2 2 9 4 -3 2 5 5 6 5 4 6 7 7 8 6 5 5 6 6 4
7 7 7 6 5 5 6 6 6 6 6 6 5 5 5 5 5 5 5 5 6 6 6 7 8 8 9 9 10 10 10 10 10 9 9 9 9 8 9 9 9 9 9 9 9 8 9 11 11 9 11 17 15 11 11 12 14 17 15 9 7 9 8 6 6 3 2 3 3 4 7 5 3 4 7 7 3 4 6 6 6 6 5 6 6 5 4 2
7 7 8 6 4 4 5 5 6 6 6 5 6 6 6 6 7 7 7 7 8 9 9 9 10 10 11 11 10 10 9 9 8 8 8 9 8 8 9 9 9 10 10 10 11 11 11 12 11 10 14 18 15 10 11 13 14 15 11 6 6 8 6 5 7 4 4 8 6 3 6 9 7 3 2 6 7 6 6 6 6 6 6 6 4 2 3 3
6 6 7 7 6 6 6 6 6 6 6 6 7 7 8 8 9 9 10 10 10 10 11 10 10 10 9 9 9 9 9 9 9 9 9 10 10 9 10 10 10 12 12 12 13 12 10 12 12 10 14 18 14 11 12 13 13 11 7 4 6 8 7 6 7 7 7 7 6 5 4 6 7 4 3 8 9 6 5 5 5 7 7 4 3 3 4 5
6 5 6 6 6 7 7 8 8 8 8 9 9 9 10 11 11 11 11 11 10 9 9 9 9 10 9 10 10 9 9 9 9 10 10 9 9 9 10 12 12 12 13 12 12 12 12 13 12 11 15 18 14 12 12 12 11 9 5 3 5 7 8 7 8 9 7 4 5 6 3 1 4 6 7 9 8 6 7 8 7 6 5 4 4 6 7 8
7 7 7 7 7 7 8 8 9 10 10 11 11 11 11 11 12 11 10 11 11 10 11 11 11 11 10 10 9 8 9 9 8 9 9 8 10 11 12 14 14 14 14 13 13 13 12 12 12 12 14 15 11 10 10 10 10 8 3 2 5 8 8 8 9 10 7 4 3 3 2 3 5 6 5 6 7 8 8 8 8 6 6 7 6 6 7 7
Height
5814 5814 5815 5817 5818 5820 5821 5823 5824 5826 5827 5829 5830 5830 5831 5832 5833 5833 5834 5834 5835 5835 5835 5836 5836 5837 5837 5838 5838 5839 5839 5839 5839 5839 5839 5839 5839 5840 5839 5838 5838 5837 5836 5836 5835 5834 5833 5832 5831 5830 5829 5829 5828 5827 5826 5826 5825 5824 5823 5821 5820 5819 5817 5816 5815 5814 5812 5811 5809 5807 5805 5804 5802 5800 5799 5797 5795 5793 5791 5789 5787 5785 5782 5780 5778 5776 5773 5771
5813 5814 5815 5816 5818 5819 5821 5822 5824 5826 5827 5828 5830 5830 5831 5832 5833 5833 5834 5834 5834 5835 5835 5836 5836 5837 5838 5838 5839 5839 5840 5840 5840 5840 5839 5839 5839 5839 5839 5838 5837 5837 5836 5835 5835 5834 5833 5832 5831 5830 5829 5828 5828 5827 5826 5825 5824 5823 5821 5820 5819 5817 5816 5814 5813 5812 5810 5809 5807 5805 5803 5802 5800 5799 5797 5795 5793 5791 5789 5786 5784 5782 5780 5778 5775 5773 5770 5767
5812 5813 5814 5816 5817 5818 5820 5822 5823 5825 5826 5827 5829 5830 5831 5832 5833 5833 5833 5834 5834 5835 5835 5836 5836 5837 5838 5838 5839 5839 5840 5840 5840 5840 5839 5839 5839 5839 5838 5837 5837 5836 5836 5835 5835 5834 5833 5832 5831 5830 5829 5828 5827 5826 5824 5823 5822 5821 5819 5818 5817 5816 5814 5812 5811 5809 5808 5806 5805 5803 5801 5800 5798 5797 5795 5793 5791 5788 5786 5784 5782 5779 5777 5775 5772 5770 5767 5764
5811 5811 5813 5815 5817 5818 5819 5821 5822 5823 5824 5826 5828 5829 5830 5832 5832 5833 5832 5833 5834 5835 5835 5836 5837 5837 5838 5838 5839 5839 5840 5840 5840 5840 5839 5839 5839 5839 5838 5837 5836 5836 5835 5835 5834 5833 5832 5831 5830 5829 5828 5827 5826 5824 5823 5822 5821 5819 5818 5816 5815 5814 5812 5810 5809 5807 5806 5804 5803 5801 5800 5798 5796 5794 5792 5790 5788 5786 5784 5782 5779 5777 5775 5772 5770 5767 5764 5760
5810 5810 5812 5814 5815 5817 5818 5820 5821 5821 5823 5826 5827 5828 5829 5830 5832 5832 5832 5833 5834 5835 5835 5836 5837 5837 5838 5838 5839 5839 5840 5840 5840 5839 5839 5839 5839 5838 5837 5837 5836 5836 5835 5834 5833 5832 5832 5831 5829 5828 5827 5826 5825 5823 5822 5821 5819 5818 5816 5815 5813 5812 5810 5809 5807 5806 5804 5803 5801 5800 5798 5796 5794 5792 5790 5788 5786 5784 5781 5779 5777 5774 5772 5769 5766 5763 5760 5757
5808 5809 5811 5813 5814 5816 5817 5819 5820 5820 5822 5825 5826 5827 5827 5829 5831 5831 5831 5832 5833 5834 5835 5836 5837 5837 5838 5838 5839 5839 5840 5840 5840 5839 5839 5839 5839 5838 5837 5837 5836 5835 5835 5834 5833 5832 5831 5830 5829 5827 5826 5825 5823 5822 5821 5819 5817 5816 5815 5813 5812 5810 5809 5808 5806 5805 5803 5801 5800 5798 5796 5794 5792 5790 5788 5786 5784 5781 5779 5776 5774 5771 5769 5766 5763 5760 5757 5754
5808 5809 5810 5812 5813 5815 5817 5818 5819 5820 5821 5824 5825 5825 5825 5828 5830 5830 5830 5832 5833 5834 5835 5836 5837 5837 5838 5839 5839 5839 5840 5840 5840 5840 5839 5839 5838 5838 5837 5836 5836 5835 5834 5833 5833 5831 5830 5829 5828 5826 5825 5824 5822 5821 5819 5818 5816 5815 5813 5812 5811 5809 5808 5807 5805 5804 5802 5800 5798 5796 5795 5793 5791 5788 5786 5784 5781 5779 5776 5774 5771 5768 5765 5762 5759 5756 5753 5750
5808 5809 5811 5812 5813 5815 5816 5817 5818 5819 5821 5823 5824 5824 5825 5828 5828 5829 5830 5831 5833 5834 5835 5836 5837 5837 5838 5839 5839 5839 5840 5840 5840 5839 5839 5839 5838 5837 5837 5836 5835 5835 5834 5833 5832 5831 5829 5828 5827 5825 5824 5823 5821 5820 5818 5816 5815 5813 5812 5811 5810 5808 5807 5806 5804 5802 5801 5799 5796 5795 5793 5791 5789 5786 5783 5781 5778 5776 5773 5770 5767 5764 5761 5758 5756 5753 5750 5747
5808 5809 5811 5812 5813 5814 5815 5817 5818 5820 5821 5823 5823 5824 5827 5827 5826 5828 5830 5831 5833 5834 5835 5836 5837 5837 5838 5839 5839 5839 5839 5839 5839 5839 5839 5838 5838 5837 5837 5836 5835 5834 5833 5832 5831 5829 5828 5827 5826 5824 5823 5822 5820 5819 5817 5815 5814 5813 5812 5810 5809 5808 5806 5804 5803 5801 5798 5797 5794 5792 5791 5789 5787 5784 5781 5778 5775 5772 5770 5767 5764 5761 5758 5755 5752 5749 5746 5742
5808 5809 5811 5812 5813 5814 5815 5817 5818 5819 5821 5822 5823 5825 5827 5826 5826 5828 5830 5831 5833 5834 5835 5836 5836 5837 5838 5838 5839 5839 5839 5839 5839 5839 5838 5838 5837 5837 5836 5835 5834 5833 5832 5831 5829 5828 5827 5826 5825 5824 5822 5821 5819 5817 5816 5814 5813 5812 5811 5810 5808 5807 5805 5803 5801 5799 5797 5795 5793 5791 5788 5786 5784 5781 5778 5775 5772 5769 5766 5763 5760 5757 5754 5751 5748 5744 5741 5738
5808 5809 5810 5811 5812 5814 5815 5816 5818 5819 5820 5821 5823 5825 5826 5825 5826 5827 5829 5831 5833 5834 5835 5836 5836 5837 5838 5838 5838 5838 5839 5839 5839 5838 5838 5838 5837 5836 5835 5834 5833 5832 5831 5830 5828 5827 5826 5825 5824 5822 5821 5819 5818 5816 5815 5813 5813 5812 5810 5809 5807 5805 5803 5801 5799 5797 5795 5793 5791 5789 5786 5783 5781 5779 5775 5772 5769 5766 5763 5760 5757 5754 5750 5747 5744 5740 5737 5734
5808 5808 5809 5811 5812 5813 5815 5816 5817 5818 5819 5820 5822 5824 5825 5825 5826 5827 5830 5832 5833 5834 5835 5835 5836 5837 5837 5838 5838 5838 5838 5839 5838 5838 5838 5837 5836 5836 5835 5834 5833 5832 5830 5829 5828 5826 5825 5824 5822 5821 5819 5818 5817 5816 5814 5813 5812 5811 5809 5807 5806 5804 5802 5799 5797 5795 5793 5791 5789 5787 5784 5780 5777 5775 5772 5769 5766 5763 5760 5757 5754 5750 5747 5743 5740 5736 5733 5729
5808 5808 5809 5810 5812 5813 5814 5815 5817 5818 5819 5821 5822 5824 5825 5825 5826 5828 5830 5832 5833 5834 5834 5835 5836 5836 5837 5838 5838 5838 5838 5838 5838 5838 5837 5837 5836 5835 5834 5833 5832 5831 5830 5828 5827 5825 5824 5822 5821 5820 5818 5817 5816 5815 5814 5812 5811 5809 5808 5806 5804 5802 5800 5798 5796 5793 5791 5789 5786 5784 5781 5776 5773 5772 5769 5766 5763 5759 5756 5753 5750 5746 5743 5739 5736 5732 5728 5725
5807 5808 5809 5809 5811 5812 5813 5815 5816 5818 5819 5821 5822 5824 5825 5826 5827 5828 5830 5832 5832 5833 5834 5835 5836 5836 5837 5837 5837 5837 5837 5838 5837 5837 5837 5836 5835 5834 5833 5832 5831 5830 5828 5827 5825 5824 5823 5821 5820 5819 5818 5816 5815 5814 5812 5811 5809 5808 5806 5804 5802 5800 5798 5797 5795 5792 5789 5786 5783 5780 5778 5774 5769 5768 5766 5763 5760 5756 5753 5749 5746 5743 5739 5736 5732 5728 5724 5721
5806 5807 5808 5809 5810 5812 5813 5815 5816 5817 5819 5820 5822 5824 5825 5826 5827 5828 5830 5831 5832 5833 5834 5835 5835 5836 5836 5837 5837 5837 5837 5837 5837 5836 5836 5835 5834 5833 5832 5831 5830 5828 5827 5826 5824 5823 5822 5820 5819 5818 5817 5816 5814 5813 5811 5810 5808 5806 5804 5802 5800 5798 5796 5794 5791 5789 5786 5783 5780 5777 5776 5772 5767 5765 5763 5760 5757 5753 5749 5746 5742 5739 5735 5732 5728 5724 5720 5716
5805 5806 5807 5809 5810 5811 5813 5814 5816 5817 5818 5820 5821 5823 5825 5826 5827 5828 5829 5830 5831 5833 5834 5834 5835 5835 5836 5836 5836 5836 5836 5836 5836 5836 5835 5835 5834 5833 5831 5830 5829 5828 5826 5825 5824 5822 5821 5819 5818 5817 5816 5815 5813 5811 5809 5808 5806 5804 5802 5800 5798 5796 5793 5791 5788 5785 5783 5780 5777 5774 5773 5770 5764 5761 5760 5757 5753 5749 5746 5742 5739 5735 5732 5728 5724 5720 5717 5712
5804 5805 5806 5807 5809 5810 5812 5813 5815 5816 5817 5819 5821 5823 5824 5825 5826 5828 5829 5830 5831 5832 5833 5834 5834 5835 5835 5835 5835 5836 5836 5836 5835 5835 5835 5834 5833 5832 5831 5830 5829 5827 5826 5824 5823 5822 5820 5819 5818 5817 5815 5813 5811 5810 5808 5806 5804 5802 5800 5798 5796 5793 5790 5788 5785 5783 5780 5778 5775 5771 5770 5767 5761 5757 5756 5754 5750 5746 5742 5739 5735 5731 5728 5724 5720 5717 5713 5709
5803 5804 5805 5806 5808 5810 5812 5813 5814 5815 5816 5818 5820 5823 5824 5825 5826 5827 5828 5829 5831 5832 5833 5833 5834 5834 5835 5835 5835 5835 5835 5835 5835 5834 5834 5833 5832 5831 5830 5829 5828 5827 5826 5824 5823 5821 5820 5819 5818 5816 5814 5812 5810 5808 5806 5804 5802 5800 5798 5796 5794 5791 5788 5786 5783 5781 5778 5775 5772 5768 5767 5765 5759 5755 5753 5751 5747 5743 5739 5735 5731 5728 5724 5721 5717 5713 5709 5705
5801 5803 5804 5805 5807 5809 5811 5813 5814 5815 5816 5818 5820 5822 5824 5825 5825 5827 5827 5829 5830 5831 5832 5833 5833 5834 5834 5834 5834 5835 5835 5834 5834 5834 5833 5832 5832 5831 5829 5828 5827 5826 5824 5823 5822 5821 5819 5818 5816 5814 5812 5810 5808 5806 5804 5802 5800 5798 5796 5794 5792 5790 5786 5783 5781 5778 5775 5772 5769 5765 5764 5761 5756 5752 5749 5747 5743 5739 5735 5731 5727 5724 5721 5717 5713 5709 5705 5701
5800 5801 5803 5804 5805 5808 5810 5812 5813 5814 5816 5818 5819 5821 5824 5825 5825 5826 5827 5828 5830 5831 5831 5832 5833 5833 5833 5834 5834 5834 5834 5834 5833 5833 5833 5832 5831 5830 5829 5828 5826 5824 5823 5822 5820 5819 5818 5816 5814 5812 5810 5808 5806 5804 5802 5800 5799 5797 5794 5792 5789 5787 5785 5781 5778 5775 5772 5769 5766 5762 5760 5757 5753 5749 5746 5742 5739 5735 5731 5728 5724 5721 5717 5713 5709 5705 5701 5697
5798 5800 5801 5803 5805 5807 5809 5811 5813 5814 5816 5818 5818 5820 5824 5825 5825 5826 5827 5828 5829 5830 5831 5831 5832 5832 5833 5833 5833 5833 5833 5833 5833 5832 5832 5831 5831 5830 5828 5827 5825 5824 5822 5821 5819 5818 5816 5814 5813 5811 5809 5807 5805 5803 5801 5799 5797 5795 5792 5790 5787 5785 5783 5779 5776 5772 5769 5766 5763 5759 5757 5754 5749 5745 5742 5738 5735 5731 5728 5724 5721 5717 5713 5709 5705 5701 5697 5693
5796 5798 5801 5802 5804 5806 5808 5810 5812 5813 5815 5817 5818 5821 5823 5824 5825 5826 5827 5828 5829 5830 5830 5831 5832 5832 5832 5833 5833 5833 5832 5832 5832 5832 5831 5831 5830 5829 5828 5826 5824 5823 5821 5820 5818 5816 5815 5813 5811 5809 5807 5805 5803 5801 5799 5797 5795 5792 5790 5787 5785 5782 5780 5777 5773 5769 5765 5762 5759 5756 5753 5750 5745 5741 5738 5735 5731 5728 5724 5720 5717 5713 5708 5704 5700 5697 5693 5689
5796 5798 5800 5802 5804 5806 5808 5810 5811 5813 5815 5817 5819 5821 5823 5824 5825 5826 5827 5828 5829 5830 5830 5831 5831 5832 5832 5832 5832 5832 5832 5831 5831 5831 5830 5830 5829 5828 5826 5825 5823 5822 5820 5819 5817 5815 5813 5812 5810 5808 5806 5803 5801 5799 5797 5794 5792 5789 5787 5784 5782 5778 5775 5773 5770 5766 5762 5758 5755 5752 5750 5747 5742 5738 5735 5731 5727 5724 5720 5716 5712 5708 5704 5700 5696 5693 5689 5686
5795 5798 5800 5802 5804 5805 5807 5809 5811 5813 5816 5818 5820 5822 5822 5824 5825 5826 5827 5828 5829 5830 5830 5831 5831 5832 5832 5832 5832 5831 5831 5831 5830 5830 5829 5829 5828 5827 5825 5824 5822 5821 5819 5817 5816 5814 5812 5810 5808 5806 5804 5801 5799 5796 5794 5792 5789 5786 5783 5781 5778 5775 5771 5768 5765 5762 5759 5754 5751 5748 5746 5744 5739 5734 5731 5727 5723 5720 5716 5711 5707 5704 5700 5697 5693 5689 5685 5681
5795 5798 5801 5802 5804 5805 5806 5809 5811 5813 5815 5817 5819 5820 5822 5823 5825 5826 5827 5828 5829 5829 5830 5831 5831 5831 5831 5831 5831 5831 5830 5830 5829 5829 5828 5828 5827 5825 5824 5822 5821 5819 5818 5816 5814 5812 5810 5808 5806 5804 5801 5799 5796 5794 5791 5789 5786 5783 5780 5777 5774 5771 5768 5764 5761 5758 5755 5751 5747 5743 5741 5740 5736 5730 5726 5723 5719 5715 5711 5707 5703 5699 5696 5692 5688 5685 5681 5677
5795 5798 5800 5802 5803 5805 5806 5808 5809 5812 5814 5816 5818 5819 5821 5823 5824 5826 5827 5828 5828 5829 5830 5831 5831 5831 5831 5831 5830 5830 5829 5829 5828 5828 5827 5826 5825 5824 5822 5821 5819 5817 5816 5814 5812 5810 5808 5806 5804 5802 5799 5796 5794 5791 5789 5786 5783 5780 5777 5774 5771 5768 5765 5761 5758 5754 5751 5747 5743 5739 5734 5734 5733 5727 5721 5719 5715 5710 5707 5703 5699 5695 5691 5688 5684 5680 5676 5672
5795 5797 5799 5801 5803 5804 5806 5807 5809 5811 5814 5816 5818 5820 5821 5823 5824 5825 5826 5827 5828 5829 5830 5830 5830 5830 5830 5830 5830 5829 5829 5828 5828 5827 5826 5825 5823 5822 5820 5819 5817 5816 5814 5812 5810 5808 5806 5804 5802 5799 5796 5794 5791 5788 5786 5783 5780 5777 5774 5771 5768 5764 5761 5758 5754 5750 5747 5743 5739 5735 5730 5727 5728 5724 5718 5715 5711 5706 5702 5698 5694 5691 5687 5683 5679 5675 5671 5668
5796 5797 5799 5801 5802 5804 5806 5808 5810 5812 5815 5817 5819 5820 5821 5822 5824 5825 5826 5827 5828 5829 5829 5829 5830 5830 5829 5829 5829 5828 5828 5827 5826 5825 5824 5823 5822 5820 5818 5817 5815 5813 5812 5810 5808 5806 5804 5801 5799 5796 5794 5791 5788 5785 5783 5780 5776 5773 5770 5767 5764 5761 5758 5754 5751 5746 5743 5739 5734 5731 5726 5723 5723 5719 5713 5710 5707 5702 5698 5694 5690 5686 5682 5679 5675 5670 5667 5663
5796 5797 5799 5801 5803 5805 5807 5809 5811 5814 5816 5818 5819 5820 5821 5822 5823 5824 5825 5827 5827 5828 5828 5829 5829 5829 5829 5828 5828 5827 5827 5826 5825 5824 5823 5821 5820 5818 5817 5815 5813 5811 5809 5807 5805 5803 5801 5799 5796 5794 5791 5788 5785 5782 5779 5776 5773 5770 5766 5763 5760 5757 5754 5750 5747 5743 5738 5735 5730 5726 5722 5718 5718 5715 5708 5704 5702 5698 5694 5689 5686 5682 5678 5675 5670 5666 5662 5659
5796 5797 5799 5801 5804 5806 5808 5810 5812 5815 5817 5818 5819 5820 5821 5822 5823 5824 5825 5826 5827 5827 5828 5828 5828 5828 5828 5827 5827 5826 5826 5825 5824 5822 5821 5820 5818 5817 5815 5813 5811 5809 5807 5805 5803 5801 5798 5796 5793 5791 5788 5785 5782 5779 5776 5773 5769 5766 5763 5760 5757 5753 5750 5747 5743 5739 5734 5731 5727 5722 5718 5713 5711 5710 5703 5698 5696 5692 5689 5685 5682 5679 5675 5671 5667 5663 5658 5655
5796 5798 5800 5802 5805 5807 5809 5811 5813 5815 5817 5818 5819 5820 5821 5822 5823 5824 5825 5826 5826 5826 5827 5827 5827 5827 5827 5826 5826 5825 5824 5823 5822 5821 5819 5818 5816 5815 5813 5811 5809 5807 5805 5803 5801 5798 5796 5793 5791 5788 5785 5782 5779 5776 5773 5770 5766 5763 5759 5756 5753 5749 5746 5742 5739 5735 5730 5727 5723 5718 5714 5710 5707 5705 5699 5693 5690 5687 5683 5680 5678 5676 5672 5668 5664 5659 5655 5651
5797 5799 5801 5803 5806 5808 5810 5812 5813 5815 5817 5818 5819 5819 5820 5821 5823 5824 5824 5825 5825 5825 5826 5826 5826 5826 5825 5825 5825 5824 5823 5822 5820 5819 5817 5816 5814 5813 5811 5808 5806 5804 5802 5800 5798 5796 5794 5791 5788 5785 5782 5779 5776 5772 5769 5766 5763 5759 5755 5751 5748 5744 5741 5738 5734 5730 5726 5722 5719 5715 5710 5707 5706 5702 5695 5690 5686 5682 5678 5675 5673 5671 5668 5665 5660 5655 5651 5646
5799 5801 5803 5805 5807 5809 5810 5812 5814 5815 5816 5818 5819 5819 5820 5821 5823 5823 5823 5823 5824 5824 5825 5825 5825 5825 5824 5824 5823 5822 5821 5820 5819 5817 5815 5814 5812 5810 5808 5806 5804 5801 5799 5797 5794 5793 5791 5788 5786 5782 5779 5776 5773 5769 5766 5763 5759 5755 5752 5747 5743 5738 5734 5732 5729 5725 5722 5719 5716 5712 5707 5705 5704 5700 5692 5686 5682 5679 5675 5672 5669 5666 5663 5660 5656 5651 5646 5642
5801 5802 5804 5806 5808 5809 5811 5812 5814 5815 5816 5818 5818 5819 5820 5821 5822 5822 5822 5823 5823 5823 5824 5824 5824 5823 5823 5822 5822 5820 5819 5818 5817 5815 5813 5812 5810 5808 5806 5804 5801 5799 5796 5794 5791 5789 5787 5785 5783 5779 5776 5773 5770 5766 5763 5759 5756 5752 5748 5744 5740 5735 5730 5726 5723 5719 5716 5714 5712 5708 5704 5702 5702 5697 5688 5681 5678 5675 5671 5668 5666 5662 5658 5654 5650 5646 5641 5637
5802 5804 5806 5807 5809 5810 5811 5813 5814 5815 5816 5817 5818 5819 5820 5821 5821 5821 5821 5822 5822 5822 5823 5823 5822 5822 5822 5821 5820 5819 5817 5816 5815 5813 5811 5809 5807 5806 5804 5801 5798 5796 5793 5790 5788 5785 5783 5781 5779 5776 5773 5770 5766 5763 5759 5756 5752 5748 5744 5740 5736 5732 5727 5723 5719 5714 5710 5708 5707 5704 5700 5700 5700 5694 5684 5676 5673 5671 5667 5663 5661 5657 5653 5648 5645 5641 5636 5631
5804 5805 5807 5808 5810 5811 5812 5813 5814 5815 5816 5817 5818 5819 5819 5819 5820 5820 5820 5821 5821 5821 5821 5821 5821 5821 5820 5819 5818 5817 5815 5813 5812 5810 5809 5807 5805 5803 5801 5798 5795 5793 5790 5788 5785 5782 5780 5778 5776 5773 5769 5766 5763 5759 5756 5752 5747 5743 5740 5736 5732 5728 5724 5719 5714 5711 5706 5701 5700 5698 5695 5696 5697 5691 5682 5673 5669 5667 5663 5659 5656 5652 5647 5643 5639 5635 5631 5626
5805 5807 5808 5809 5810 5811 5812 5813 5814 5815 5816 5817 5818 5818 5818 5819 5819 5819 5819 5820 5820 5820 5820 5820 5819 5819 5818 5817 5816 5815 5813 5811 5810 5808 5806 5804 5802 5800 5798 5795 5793 5790 5787 5784 5782 5779 5776 5774 5773 5770 5766 5763 5760 5756 5753 5749 5744 5739 5735 5732 5728 5724 5720 5715 5709 5706 5702 5696 5693 5691 5689 5692 5691 5685 5678 5671 5667 5664 5660 5656 5652 5649 5644 5639 5635 5631 5626 5622
5807 5808 5809 5810 5810 5811 5812 5813 5814 5815 5816 5816 5817 5817 5818 5818 5818 5818 5818 5819 5819 5819 5819 5818 5817 5817 5816 5815 5814 5812 5810 5809 5807 5805 5803 5801 5799 5797 5794 5792 5790 5787 5784 5781 5778 5776 5773 5770 5769 5767 5763 5759 5756 5752 5749 5745 5740 5735 5731 5728 5724 5720 5716 5711 5705 5701 5697 5691 5687 5684 5684 5689 5688 5679 5672 5667 5664 5661 5657 5653 5649 5645 5641 5636 5632 5627 5622 5617
5808 5809 5809 5810 5811 5811 5812 5813 5814 5814 5815 5816 5816 5816 5817 5817 5817 5817 5817 5817 5817 5817 5817 5816 5815 5815 5814 5813 5811 5810 5808 5806 5804 5802 5800 5798 5796 5794 5791 5789 5786 5783 5781 5778 5775 5772 5769 5766 5764 5763 5759 5755 5752 5748 5744 5741 5736 5732 5728 5724 5721 5716 5712 5707 5702 5697 5692 5687 5682 5675 5676 5685 5686 5675 5667 5663 5659 5656 5651 5648 5644 5640 5636 5632 5627 5622 5616 5611
5808 5809 5810 5810 5811 5811 5812 5813 5813 5814 5815 5815 5815 5816 5816 5816 5816 5816 5816 5816 5816 5815 5815 5814 5813 5812 5812 5810 5808 5807 5805 5803 5801 5799 5797 5795 5793 5790 5788 5785 5783 5780 5777 5775 5771 5768 5765 5762 5759 5758 5756 5751 5747 5744 5740 5736 5731 5727 5724 5721 5717 5713 5708 5703 5698 5694 5688 5683 5679 5670 5667 5680 5683 5671 5663 5659 5655 5651 5646 5643 5640 5635 5631 5627 5622 5616 5611 5606
5808 5809 5810 5810 5811 5811 5812 5812 5813 5814 5814 5814 5814 5815 5815 5815 5815 5815 5815 5814 5814 5813 5813 5812 5811 5810 5809 5808 5806 5804 5802 5800 5798 5796 5794 5792 5789 5787 5784 5782 5779 5776 5774 5771 5768 5764 5761 5757 5755 5754 5751 5747 5743 5740 5736 5732 5728 5724 5720 5717 5714 5709 5704 5698 5693 5691 5685 5680 5679 5668 5662 5674 5679 5667 5659 5656 5650 5645 5641 5638 5635 5631 5627 5622 5617 5612 5606 5601
5809 5809 5810 5811 5811 5812 5812 5812 5813 5813 5813 5813 5813 5814 5814 5814 5814 5813 5813 5813 5812 5812 5811 5810 5809 5808 5806 5805 5803 5801 5799 5797 5795 5793 5791 5789 5786 5783 5781 5778 5776 5773 5770 5767 5764 5760 5756 5753 5751 5749 5747 5743 5740 5736 5732 5728 5725 5721 5717 5714 5710 5705 5701 5695 5688 5686 5681 5677 5677 5666 5657 5666 5672 5661 5655 5652 5645 5639 5636 5632 5630 5626 5622 5617 5611 5607 5601 5596
5809 5810 5810 5811 5811 5811 5812 5812 5812 5812 5812 5812 5813 5813 5812 5812 5812 5812 5811 5811 5810 5810 5809 5808 5807 5805 5803 5802 5800 5798 5796 5794 5792 5790 5788 5785 5783 5780 5777 5775 5772 5769 5766 5763 5760 5756 5752 5749 5746 5745 5742 5739 5736 5733 5729 5725 5722 5718 5715 5710 5705 5701 5697 5691 5685 5680 5676 5674 5674 5663 5652 5657 5663 5656 5651 5646 5639 5633 5630 5626 5623 5621 5617 5612 5605 5600 5595 5590
5809 5810 5810 5811 5811 5811 5811 5812 5812 5812 5812 5812 5812 5811 5811 5811 5811 5810 5810 5809 5808 5808 5807 5806 5804 5802 5801 5799 5797 5795 5793 5790 5788 5787 5784 5782 5779 5776 5773 5771 5768 5765 5762 5758 5755 5752 5748 5745 5741 5738 5736 5734 5732 5729 5725 5721 5717 5714 5711 5706 5701 5697 5691 5687 5682 5677 5671 5669 5668 5660 5649 5649 5654 5650 5645 5641 5634 5629 5626 5622 5619 5616 5612 5607 5600 5594 5589 5584
5810 5810 5810 5810 5810 5811 5811 5811 5811 5811 5811 5811 5810 5810 5810 5809 5809 5809 5808 5807 5806 5805 5804 5803 5801 5800 5798 5796 5794 5792 5790 5787 5785 5783 5781 5778 5775 5772 5769 5767 5764 5760 5757 5754 5751 5748 5744 5741 5738 5733 5730 5727 5725 5723 5719 5715 5712 5708 5705 5701 5696 5691 5686 5682 5678 5673 5667 5662 5660 5657 5647 5643 5647 5646 5639 5634 5629 5624 5621 5617 5614 5612 5607 5600 5593 5587 5582 5577
5809 5810 5810 5810 5810 5811 5811 5811 5811 5810 5810 5810 5809 5809 5808 5808 5808 5807 5806 5805 5804 5803 5802 5800 5798 5797 5795 5793 5791 5789 5786 5784 5781 5779 5777 5774 5771 5768 5765 5762 5759 5756 5753 5750 5747 5744 5740 5738 5734 5730 5727 5723 5721 5719 5714 5711 5708 5704 5701 5696 5691 5685 5681 5678 5674 5669 5663 5656 5654 5654 5644 5636 5640 5639 5631 5627 5623 5618 5613 5609 5606 5604 5600 5592 5585 5579 5574 5569
5809 5809 5809 5810 5810 5810 5810 5810 5810 5809 5809 5809 5808 5808 5807 5807 5806 5805 5804 5803 5802 5801 5799 5797 5795 5793 5792 5789 5787 5785 5783 5780 5778 5775 5773 5770 5767 5764 5761 5758 5755 5752 5749 5746 5742 5739 5735 5733 5731 5727 5724 5721 5719 5715 5711 5707 5704 5701 5697 5692 5686 5681 5677 5674 5671 5666 5660 5652 5649 5650 5643 5633 5633 5632 5624 5620 5617 5611 5607 5603 5599 5596 5591 5584 5576 5571 5567 5562
5809 5809 5809 5809 5810 5810 5809 5809 5809 5808 5808 5807 5807 5806 5806 5805 5804 5803 5802 5801 5799 5798 5796 5794 5792 5790 5788 5786 5784 5782 5779 5777 5774 5771 5769 5766 5763 5760 5757 5754 5752 5748 5745 5741 5738 5734 5730 5729 5727 5723 5721 5719 5715 5711 5707 5703 5699 5697 5693 5687 5682 5678 5674 5671 5668 5664 5658 5651 5646 5644 5640 5633 5629 5626 5621 5616 5610 5604 5600 5596 5593 5590 5583 5576 5569 5564 5559 5554
5809 5809 5809 5809 5809 5809 5808 5808 5808 5807 5807 5806 5806 5805 5804 5803 5802 5801 5800 5798 5797 5795 5793 5791 5789 5787 5785 5782 5780 5778 5775 5773 5770 5768 5765 5762 5759 5756 5753 5751 5747 5744 5741 5737 5733 5730 5726 5724 5722 5718 5717 5716 5712 5707 5703 5700 5696 5694 5689 5683 5678 5674 5670 5667 5665 5661 5655 5649 5643 5639 5636 5631 5626 5619 5615 5611 5605 5599 5594 5590 5587 5584 5576 5568 5562 5557 5552 5546
5808 5808 5808 5808 5808 5808 5807 5807 5806 5806 5805 5805 5804 5803 5802 5801 5800 5799 5797 5796 5794 5792 5790 5788 5786 5784 5781 5779 5777 5774 5772 5769 5766 5764 5761 5758 5755 5752 5749 5746 5743 5740 5736 5733 5729 5726 5722 5720 5717 5713 5712 5713 5709 5703 5700 5696 5693 5689 5684 5679 5674 5670 5667 5664 5662 5658 5653 5647 5641 5635 5630 5626 5622 5615 5609 5604 5598 5592 5587 5583 5580 5578 5571 5562 5555 5549 5543 5537
5808 5808 5808 5808 5807 5807 5806 5806 5805 5804 5804 5803 5802 5801 5800 5799 5797 5796 5794 5793 5790 5789 5787 5785 5783 5780 5778 5775 5773 5770 5768 5765 5762 5760 5757 5754 5751 5748 5745 5742 5739 5735 5732 5728 5725 5722 5718 5715 5712 5708 5707 5708 5704 5700 5697 5694 5689 5685 5679 5674 5670 5667 5664 5661 5657 5653 5648 5641 5636 5631 5624 5619 5616 5610 5605 5600 5594 5587 5580 5576 5573 5569 5563 5555 5547 5539 5532 5527
5808 5807 5807 5807 5806 5806 5805 5805 5804 5803 5802 5801 5800 5799 5798 5796 5795 5793 5791 5790 5788 5786 5784 5782 5779 5777 5774 5772 5769 5767 5764 5762 5759 5756 5753 5750 5747 5744 5741 5738 5734 5731 5728 5724 5721 5718 5715 5711 5708 5704 5702 5702 5700 5695 5693 5690 5685 5680 5675 5670 5667 5663 5659 5656 5653 5649 5644 5636 5629 5624 5619 5614 5610 5605 5600 5597 5592 5584 5576 5568 5563 5557 5550 5545 5540 5532 5524 5518